Weather observations for the past three days for
Parsons, Tri-City Airport
Imperial (Metric)
Date Time (cdt) Wind (mph) Vis. (mi.) Weather Sky Cond. Temperature (ºF) Relative Humidity Wind Chill (°F) Heat Index (°F) Pressure Precipitation (in)
Air Dwpt 6 hour altimeter (in) sea level (mb) 1 hr 3 hr 6 hr
Max. Min.
20 16:52 S 6 10.00 Fair CLR 89.1 68 50% 93 30.2 1021.6
20 15:52 SE 3 10.00 Overcast OVC090 88 68 52% 92 30.23 1022.4
20 14:52 SE 6 10.00 Mostly Cloudy FEW050 BKN085 89.1 68 50% 93 30.24 1022.8
20 13:52 S 3 10.00 Overcast OVC080 89.1 66.9 48% 92 30.25 1023.2
20 12:52 Calm 10.00 Mostly Cloudy FEW043 BKN080 88 68 89.1 72 52% 92 30.27 1023.8
20 11:52 Vrbl 3 10.00 Mostly Cloudy SCT039 BKN048 86 69.1 57% 90 30.27 1024.1
20 10:52 S 6 10.00 Fair CLR 84.9 69.1 59% 89 30.28 1024.1
20 09:52 Vrbl 5 10.00 Fair CLR 82 71.1 69% 86 30.27 1024.1
20 08:52 S 5 10.00 Fair CLR 78.1 70 76% 80 30.27 1024.0
20 07:52 S 5 10.00 Fair CLR 77 70 79% 79 30.26 1023.6
20 06:52 Calm 10.00 Fair CLR 72 68 73 69.1 87% 30.25 1023.2
20 05:52 Calm 10.00 Mostly Cloudy BKN070 70 68 93% 30.24 1022.8
20 04:52 Calm 10.00 Partly Cloudy SCT065 71.1 66.9 87% 30.22 1022.1
20 03:52 Calm 10.00 Fair CLR 71.1 66.9 87% 30.21 1021.9
20 02:52 Calm 10.00 Fair CLR 71.1 66.9 87% 30.21 1021.8
20 01:52 Calm 10.00 Fair CLR 71.1 66.9 87% 30.21 1021.8
20 00:52 Calm 10.00 Fair CLR 72 66.9 88 72 84% 30.2 1021.7
19 23:52 Calm 10.00 Fair CLR 73.9 66 76% 30.2 1021.6
19 22:52 Calm 10.00 Fair CLR 75 66.9 76% 76 30.19 1021.4
19 21:52 Calm 10.00 Fair CLR 78.1 66.9 69% 80 30.18 1020.9
19 20:52 SE 3 10.00 Fair CLR 81 66.9 62% 83 30.15 1020.1
19 19:52 SE 3 10.00 A Few Clouds FEW050 86 66.9 53% 89 30.14 1019.4
19 18:52 SE 3 10.00 A Few Clouds FEW060 87.1 69.1 90 84 55% 91 30.13 1019.0
19 17:52 Vrbl 3 10.00 Fair CLR 90 68 48% 94 30.12 1018.7
19 16:52 S 6 10.00 A Few Clouds FEW050 90 68 48% 94 30.12 1018.9
19 15:52 S 3 10.00 Mostly Cloudy SCT045 BKN055 BKN070 88 69.1 54% 92 30.14 1019.5
19 14:52 Vrbl 5 10.00 Partly Cloudy FEW046 SCT050 88 68 52% 92 30.15 1019.7
19 12:52 S 10 G 17 10.00 Mostly Cloudy SCT032 BKN120 84.9 70 84.9 73.9 61% 89 30.18 1020.9
19 11:52 S 9 10.00 Mostly Cloudy SCT027 BKN120 82.9 71.1 67% 88 30.18 1020.9
19 10:52 S 12 G 22 10.00 Mostly Cloudy SCT021 BKN027 BKN120 80.1 70 71% 83 30.17 1020.6
19 09:52 S 14 G 22 10.00 Overcast FEW019 OVC120 79 70 74% 82 30.16 1020.1
19 08:52 S 12 G 22 10.00 Fair CLR 77 70 79% 79 30.15 1019.8
19 07:52 S 8 10.00 Fair CLR 75 69.1 82% 75 30.12 1018.9
19 06:52 Vrbl 5 10.00 A Few Clouds FEW110 73.9 69.1 75.9 73 85% 30.1 1018.2
19 05:52 Vrbl 5 10.00 Partly Cloudy SCT100 73.9 68 82% 30.08 1017.4
19 04:52 SE 6 10.00 Partly Cloudy SCT080 73.9 66.9 79% 30.05 1016.5
19 03:52 SE 5 10.00 Partly Cloudy SCT075 73.9 66 76% 30.04 1016.0
19 02:52 SE 3 10.00 Fair CLR 73.9 66 76% 30.04 1015.9
19 01:52 SE 3 10.00 Fair CLR 75 66 74% 76 30.03 1015.6
19 00:52 S 5 10.00 Fair CLR 75.9 64.9 87.1 75.9 69% 78 30.01 1015.1
18 23:52 S 7 10.00 Fair CLR 79 64.9 62% 81 30 1014.8
18 22:52 S 5 10.00 Fair CLR 80.1 66 62% 82 29.99 1014.3
18 21:52 S 7 10.00 Fair CLR 82 66.9 60% 85 29.96 1013.4
18 20:52 S 7 10.00 Fair CLR 84 66 55% 86 29.92 1012.2
18 19:52 S 8 10.00 Fair CLR 84.9 66.9 55% 88 29.89 1011.0
18 18:52 S 10 G 25 10.00 Fair CLR 87.1 66 89.1 84 50% 89 29.87 1010.4
18 17:52 S 13 G 23 10.00 Fair CLR 89.1 68 50% 93 29.86 1010.0
18 16:52 S 13 G 35 10.00 Partly Cloudy SCT055 88 68 52% 92 29.87 1010.3
18 15:52 S 13 G 29 10.00 Partly Cloudy FEW049 SCT070 88 69.1 54% 92 29.89 1010.9
18 14:52 S 10 G 25 10.00 Overcast SCT045 OVC065 86 69.1 57% 90 29.9 1011.4
18 13:52 S 13 G 24 10.00 Overcast BKN044 OVC055 84.9 69.1 59% 89 29.9 1011.4
18 12:52 S 13 G 33 10.00 Overcast SCT040 OVC049 84 68 84.9 75 59% 87 29.91 1011.7
18 11:52 S 17 G 31 10.00 Overcast BKN037 OVC045 82.9 68 61% 86 29.9 1011.4
18 10:52 S 17 G 31 10.00 A Few Clouds FEW034 82.9 68 61% 86 29.89 1010.9
18 09:52 S 17 G 39 10.00 Partly Cloudy SCT030 81 68 65% 84 29.88 1010.7
18 08:52 S 15 G 32 10.00 Partly Cloudy SCT025 80.1 68 67% 83 29.87 1010.2
18 07:52 S 15 G 24 10.00 A Few Clouds FEW020 78.1 69.1 74% 80 29.86 1009.8
18 06:52 S 14 G 21 10.00 Partly Cloudy SCT022 75 69.1 80.1 75 82% 75 29.84 1009.3
18 05:52 S 13 G 23 10.00 Partly Cloudy SCT025 75 69.1 82% 75 29.83 1008.8
18 04:52 S 13 G 22 10.00 Fair CLR 75 69.1 82% 75 29.81 1008.3
18 03:52 S 10 G 20 10.00 Fair CLR 77 69.1 77% 79 29.8 1007.9
18 02:52 S 10 G 20 10.00 Fair CLR 78.1 69.1 74% 80 29.8 1007.8
18 01:52 S 9 G 18 10.00 Fair CLR 79 69.1 72% 82 29.81 1008.2
18 00:52 S 8 G 17 10.00 Fair CLR 80.1 69.1 89.1 79 69% 83 29.82 1008.5
17 23:52 S 8 10.00 Fair CLR 81 69.1 67% 84 29.82 1008.6
17 22:52 S 7 10.00 Fair CLR 82 70 67% 86 29.82 1008.6
17 21:52 S 8 10.00 Fair CLR 82.9 69.1 63% 87 29.81 1008.2
17 20:52 S 9 G 20 10.00 Fair CLR 84.9 69.1 59% 89 29.79 1007.6
17 19:52 S 12 G 23 10.00 Fair CLR 87.1 69.1 55% 91 29.78 1007.4
17 18:52 S 12 G 24 10.00 Fair CLR 89.1 69.1 91 89.1 52% 94 29.78 1007.1
17 17:52 S 12 G 22 10.00 A Few Clouds FEW050 89.1 68 50% 93 29.78 1007.2
Date Time (cdt) Wind (mph) Vis. (mi.) Weather Sky Cond. Air Dwpt Max. Min. Relative Humidity Wind Chill (°F) Heat Index (°F) altimeter (in) sea level (mb) 1 hr 3 hr 6 hr
6 hour
Temperature (ºF) Pressure Precipitation (in)